(233895) = 2008 YF49 = 2007 RD101 = 2005 GH184

Discovered at Mount Lemmon on 2008-12-29 by Mt. Lemmon Survey.

Orbit

Orbit type: Main Belt

Note: WebGL enabled browser required.

epoch2022-01-21.0
epoch JD2459600.5
perihelion date2021-03-18.53386
perihelion JD2459292.03386
argument of perihelion (°)54.38786
ascending node (°)12.89661
inclination (°)2.38731
eccentricity0.1274906
perihelion distance (AU)2.2827833
Tisserand w.r.t. Jupiter3.4
ΔV w.r.t. Earth (km/sec)9.5
semimajor axis (AU)2.6163423
mean anomaly (°)71.84053
mean daily motion (°/day)0.23289600
aphelion distance (AU)2.950
period (years)4.23
P-vector [x]0.38631364
P-vector [y]0.83221472
P-vector [z]0.39771903
Q-vector [x]-0.92232063
Q-vector [y]0.34419121
Q-vector [z]0.17566180
absolute magnitude17.26
phase slope0.15
uncertainty0
referenceMPO 695903
observations used254
oppositions14
arc length (days)7689
first opposition used2001
last opposition used2022
residual rms (arc-secs)0.76
perturbers coarse indicatorM-v
perturbers precise indicator003Ek
first observation date used2001-03-19.0
last observation date used2022-04-07.0
computer namePan
JD of orbit computation2456789.343194
perihelion JD uncertainty (days)1.1904E-04
argument of perihelion uncertainty (°)1.1770E-04
ascending node uncertainty (°)1.1462E-04
inclination uncertainty (°)6.4253E-06
eccentricity uncertainty 4.2441E-08
perihelion distance uncertainty (AU)1.1091E-07
Minimum Orbit Intersection Distances (in AU)
for orbit epoch: 2458200.5, reference: MPO407740
Mercury1.97435
Venus1.56319
Earth1.29677
Mars0.733143
Jupiter2.32976
Saturn6.72531
Uranus15.4431
Neptune27.2754

Observations

256 total observations over interval: 2001 03 19.27275 – 2022 04 07.283986
These data are available for download (format description).

Date (UT) J2000 RA J2000 Dec Magn Location Ref
2001 03 19.27275 12 04 49.79 +00 25 11.7 21.0 V 691 – Steward Observatory, Kitt Peak-Spacewatch MPS 276574
2001 03 19.29403 12 04 48.62 +00 25 17.8 21.6 V 691 – Steward Observatory, Kitt Peak-Spacewatch MPS 276574
2001 03 19.31619 12 04 47.35 +00 25 24.4 21.2 V 691 – Steward Observatory, Kitt Peak-Spacewatch MPS 276574
2001 03 21.19713 12 03 06.84 +00 34 38.1 20.0 R 695 – Kitt Peak MPS 312652
2001 03 21.20923 12 03 06.17 +00 34 41.6 20.1 R 695 – Kitt Peak MPS 312652
2001 03 21.22065 12 03 05.55 +00 34 44.9 20.2 R 695 – Kitt Peak MPS 312652
2001 03 22.21465 12 02 12.37 +00 39 36.2 20.9 R 695 – Kitt Peak MPS 312652
2001 03 22.22927 12 02 11.58 +00 39 40.5 21.5 R 695 – Kitt Peak MPS 312652
2001 03 22.24048 12 02 10.96 +00 39 43.7 20.6 R 695 – Kitt Peak MPS 312652
2001 03 23.18090 12 01 20.82 +00 44 18.6 20.2 R 695 – Kitt Peak MPS 312652
2001 03 23.20105 12 01 19.73 +00 44 24.5 20.4 R 695 – Kitt Peak MPS 312652
2001 03 23.21606 12 01 18.95 +00 44 28.4 20.2 R 695 – Kitt Peak MPS 312652
2001 03 23.21868 12 01 18.78 +00 44 28.8 20.6 V 695 – Kitt Peak MPS 312652
2001 03 29.17417 11 56 06.61 +01 12 41.0 20.5 R 695 – Kitt Peak MPS 312652
2001 03 29.18476 11 56 06.05 +01 12 44.0 20.5 R 695 – Kitt Peak MPS 312652
2001 03 29.21696 11 56 04.37 +01 12 53.1 20.4 R 695 – Kitt Peak MPS 312652
2001 03 30.16890 11 55 16.01 +01 17 12.7 20.5 R 695 – Kitt Peak MPS 312652
2001 03 30.18660 11 55 15.07 +01 17 17.4 20.5 R 695 – Kitt Peak MPS 312652
2001 03 30.19678 11 55 14.54 +01 17 20.3 20.5 R 695 – Kitt Peak MPS 312652
2001 03 31.20020 11 54 24.07 +01 21 49.8 20.5 R 695 – Kitt Peak MPS 312652
2001 03 31.21001 11 54 23.57 +01 21 52.3 20.5 R 695 – Kitt Peak MPS 312652
2001 03 31.22794 11 54 22.64 +01 21 57.2 20.5 R 695 – Kitt Peak MPS 312652
2001 03 31.23045 11 54 22.57 +01 21 57.6 21.0 V 695 – Kitt Peak MPS 312652
2003 09 21.38934 00 56 35.30 +05 39 10.1 20.9 V 691 – Steward Observatory, Kitt Peak-Spacewatch MPS 276574
2003 09 21.41553 00 56 34.05 +05 39 04.7 20.8 V 691 – Steward Observatory, Kitt Peak-Spacewatch MPS 276574
2003 09 21.44212 00 56 32.79 +05 38 58.9 20.8 V 691 – Steward Observatory, Kitt Peak-Spacewatch MPS 276574
2003 10 20.18177 00 32 02.99 +03 40 02.2 20.8 V 691 – Steward Observatory, Kitt Peak-Spacewatch MPS 276574
2003 10 20.20907 00 32 01.65 +03 39 56.2 20.8 V 691 – Steward Observatory, Kitt Peak-Spacewatch MPS 276574
2003 10 20.23720 00 32 00.27 +03 39 49.7 20.6 V 691 – Steward Observatory, Kitt Peak-Spacewatch MPS 276574
2005 03 10.27635 10 20 27.85 +12 39 19.0 19.7 R G96 – Mt. Lemmon Survey MPS 276574
2005 03 10.28295 10 20 27.49 +12 39 20.3 20.3 R G96 – Mt. Lemmon Survey MPS 276574
2005 03 10.28957 10 20 27.15 +12 39 21.8 20.1 R G96 – Mt. Lemmon Survey MPS 276574
2005 03 10.29617 10 20 26.81 +12 39 22.8 20.1 R G96 – Mt. Lemmon Survey MPS 276574
2005 04 10.17996 10 05 39.41 +13 21 06.6 21.1 R 695 – Kitt Peak MPS 133139
2005 04 11.18641 10 05 35.00 +13 20 12.5   695 – Kitt Peak MPS 133139
2005 04 11.28258 10 05 34.51 +13 20 06.7   695 – Kitt Peak MPS 133139
2007 09 11.27139 22 48 44.67 -09 42 00.4 20.5 V G96 – Mt. Lemmon Survey MPS 216433
2007 09 11.27829 22 48 44.31 -09 42 02.3 20.3 V G96 – Mt. Lemmon Survey MPS 216433
2007 09 11.28516 22 48 43.92 -09 42 04.1 20.4 V G96 – Mt. Lemmon Survey MPS 216433
2007 09 11.29207 22 48 43.56 -09 42 05.9 20.0 V G96 – Mt. Lemmon Survey MPS 216433
2007 09 12.27267 22 47 51.93 -09 46 13.8 20.3 V G96 – Mt. Lemmon Survey MPS 216433
2007 09 12.27879 22 47 51.64 -09 46 15.3 20.4 V G96 – Mt. Lemmon Survey MPS 216433
2007 09 12.28490 22 47 51.28 -09 46 16.8 20.4 V G96 – Mt. Lemmon Survey MPS 216433
2007 09 12.29098 22 47 50.96 -09 46 18.3 20.7 V G96 – Mt. Lemmon Survey MPS 216433
2007 10 09.09847 22 29 50.23 -10 58 14.0 20.8 V 691 – Steward Observatory, Kitt Peak-Spacewatch MPS 276574
2007 10 09.11744 22 29 49.76 -10 58 15.4 21.2 V 691 – Steward Observatory, Kitt Peak-Spacewatch MPS 276574
2007 10 09.13642 22 29 49.30 -10 58 16.3 21.1 V 691 – Steward Observatory, Kitt Peak-Spacewatch MPS 276574
2008 12 04.42591 09 07 07.42 +19 56 06.2 21.9 V G96 – Mt. Lemmon Survey MPS 276574
2008 12 04.43712 09 07 07.53 +19 56 06.0 20.9 V G96 – Mt. Lemmon Survey MPS 276574
2008 12 04.44822 09 07 07.82 +19 56 06.3 21.9 V G96 – Mt. Lemmon Survey MPS 276574
2008 12 04.45932 09 07 07.89 +19 56 05.8 21.3 V G96 – Mt. Lemmon Survey MPS 276574
2008 12 29.33307 09 04 09.73 +20 32 55.5 20.7 V G96 – Mt. Lemmon Survey MPS 271851
2008 12 29.34280 09 04 09.44 +20 32 56.8 20.7 V G96 – Mt. Lemmon Survey MPS 271851
2008 12 29.35045 09 04 09.19 +20 32 58.4 20.6 V G96 – Mt. Lemmon Survey MPS 271851
2008 12 29.35807 09 04 08.94 +20 32 59.6 20.8 V G96 – Mt. Lemmon Survey MPS 271851
2008 12 31.42298 09 03 00.66 +20 39 10.4 20.2 V 691 – Steward Observatory, Kitt Peak-Spacewatch MPS 271851
2008 12 31.43875 09 03 00.11 +20 39 13.7 20.4 V 691 – Steward Observatory, Kitt Peak-Spacewatch MPS 271851
2008 12 31.45451 09 02 59.54 +20 39 16.2 20.5 V 691 – Steward Observatory, Kitt Peak-Spacewatch MPS 271851
2009 01 16.19422 08 50 44.37 +21 34 14.2 20.2 V 691 – Steward Observatory, Kitt Peak-Spacewatch MPS 272824
2009 01 16.21581 08 50 43.14 +21 34 19.1 20.1 V 691 – Steward Observatory, Kitt Peak-Spacewatch MPS 272824
2009 01 16.23419 08 50 42.05 +21 34 23.1 20.2 V 691 – Steward Observatory, Kitt Peak-Spacewatch MPS 272824
2009 01 17.34802 08 49 38.38 +21 38 28.4 20.3 V 703 – Catalina Sky Survey MPS 276574
2009 01 17.35527 08 49 38.06 +21 38 30.9 20.5 V 703 – Catalina Sky Survey MPS 276574
2009 01 17.36260 08 49 37.48 +21 38 30.4 19.9 V 703 – Catalina Sky Survey MPS 276574
2009 01 17.36986 08 49 37.27 +21 38 33.4 20.0 V 703 – Catalina Sky Survey MPS 276574
2009 01 20.23954 08 46 49.73 +21 48 55.8 19.9 V 691 – Steward Observatory, Kitt Peak-Spacewatch MPS 272824
2009 01 20.25771 08 46 48.62 +21 49 00.1 20.2 V 691 – Steward Observatory, Kitt Peak-Spacewatch MPS 272824
2009 01 20.27587 08 46 47.51 +21 49 03.9 20.3 V 691 – Steward Observatory, Kitt Peak-Spacewatch MPS 272824
2009 02 20.24327 08 18 36.07 +23 00 29.8 21.0 V G96 – Mt. Lemmon Survey MPS 277655
2009 02 20.25196 08 18 35.74 +23 00 30.2 21.1 V G96 – Mt. Lemmon Survey MPS 277655
2009 02 20.26068 08 18 35.38 +23 00 30.5 20.9 V G96 – Mt. Lemmon Survey MPS 277655
2009 02 20.26935 08 18 35.06 +23 00 30.6 20.8 V G96 – Mt. Lemmon Survey MPS 277655
2010 05 11.26152 15 00 01.66 -19 16 06.6 21.2 V 691 – Steward Observatory, Kitt Peak-Spacewatch MPS 327277
2010 05 11.27682 15 00 00.74 -19 16 03.0 21.2 V 691 – Steward Observatory, Kitt Peak-Spacewatch MPS 327277
2010 05 11.29212 14 59 59.85 -19 16 00.3 21.7 V 691 – Steward Observatory, Kitt Peak-Spacewatch MPS 327277
2011 08 01.43164 21 23 50.728 -18 43 01.68 21.0 g F51 – Pan-STARRS 1, Haleakala MPS 388579
2011 08 01.44374 21 23 50.053 -18 43 04.17 21.3 g F51 – Pan-STARRS 1, Haleakala MPS 388579
2012 12 11.37058 06 30 48.89 +27 14 30.9 19.9 R 926 – Tenagra II Observatory, Nogales MPS 447535
2012 12 11.38459 06 30 48.09 +27 14 31.9 19.8 R 926 – Tenagra II Observatory, Nogales MPS 447535
2012 12 11.39873 06 30 47.26 +27 14 33.2 19.7 R 926 – Tenagra II Observatory, Nogales MPS 447535
2014 04 04.27920 13 58 41.46 -12 58 15.8 21.4 V 691 – Steward Observatory, Kitt Peak-Spacewatch MPS 509543
2014 04 04.29692 13 58 40.57 -12 58 12.8 21.3 V 691 – Steward Observatory, Kitt Peak-Spacewatch MPS 509543
2014 04 04.31464 13 58 39.65 -12 58 09.0 21.1 V 691 – Steward Observatory, Kitt Peak-Spacewatch MPS 509543
2014 04 04.45108 13 58 32.995 -12 57 39.09 21.1 w F51 – Pan-STARRS 1, Haleakala MPS 510854
2014 04 04.46246 13 58 32.424 -12 57 36.99 21.1 w F51 – Pan-STARRS 1, Haleakala MPS 510854
2014 04 04.47381 13 58 31.829 -12 57 34.46 21.2 w F51 – Pan-STARRS 1, Haleakala MPS 510854
2014 04 04.48516 13 58 31.252 -12 57 32.00 21.1 w F51 – Pan-STARRS 1, Haleakala MPS 510854
2014 04 21.28375 13 43 47.38 -11 50 12.6 20.4 V G96 – Mt. Lemmon Survey MPS 512196
2014 04 21.29150 13 43 46.94 -11 50 10.2 20.3 V G96 – Mt. Lemmon Survey MPS 512196
2014 04 21.29926 13 43 46.52 -11 50 08.1 20.3 V G96 – Mt. Lemmon Survey MPS 512196
2014 04 23.00312 13 42 15.57 -11 42 44.0 20.9 V W84 – Cerro Tololo-DECam MPS 788893
2014 04 23.00691 13 42 15.37 -11 42 43.1   W84 – Cerro Tololo-DECam MPS 788893
